Printer-friendly version

IAU Minor Planet Center

Minor Planet Center

MPEC 2004-B48 : 2004 BX58

The following Minor Planet Electronic Circular may be linked-to from your own Web pages, but must not otherwise be redistributed electronically.


Read MPEC 2004-B47 Read MPEC 2004-B49


M.P.E.C. 2004-B48                                Issued 2004 Jan. 25, 11:32 UT

     The Minor Planet Electronic Circulars contain information on unusual
         minor planets and routine data on comets.  They are published
   on behalf of Commission 20 of the International Astronomical Union by the
          Minor Planet Center, Smithsonian Astrophysical Observatory,
                          Cambridge, MA 02138, U.S.A.

         Supported in part by the Steven and Michele Kirsch Foundation
             Prepared using the Tamkin Foundation Computer Network

                              MPC@CFA.HARVARD.EDU
          URL http://cfa-www.harvard.edu/iau/mpc.html  ISSN 1523-6714

                                   2004 BX58

Observations:
     K04B58X* C2004 01 23.41305 13 24 54.24 +00 59 04.3          19.3   EB048704
     K04B58X  C2004 01 23.42582 13 24 56.58 +00 59 29.7          19.7   EB048704
     K04B58X  C2004 01 23.43937 13 24 58.99 +00 59 56.8          19.4   EB048704
     K04B58X  C2004 01 23.45249 13 25 01.32 +01 00 22.2          20.1   EB048704
     K04B58X  C2004 01 24.05550 13 26 53.18 +01 19 47.8                 EB048246
     K04B58X  C2004 01 24.05619 13 26 53.32 +01 19 49.9                 EB048246
     K04B58X  C2004 01 24.05689 13 26 53.46 +01 19 50.8                 EB048246
     K04B58X  C2004 01 24.05755 13 26 53.58 +01 19 51.7                 EB048246
     K04B58X  C2004 01 24.05822 13 26 53.78 +01 19 53.2                 EB048246
     K04B58X  C2004 01 24.05891 13 26 53.87 +01 19 54.5                 EB048246
     K04B58X  C2004 01 25.17469 13 30 13.45 +01 55 51.9                 EB048118
     K04B58X  C2004 01 25.18547 13 30 15.24 +01 56 12.5                 EB048118
     K04B58X  C2004 01 25.18910 13 30 15.87 +01 56 20.3                 EB048118
     K04B58X  C2004 01 25.19270 13 30 16.51 +01 56 26.8                 EB048118

Observer details:
118 Modra.  Observers S. Gajdos, J. Vilagi.  0.6-m f/5.5 reflector + CCD.
246 Klet Observatory-KLENOT.  Observers J. Ticha, M. Tichy.  1.06-m KLENOT
    Telescope + CCD.
704 Lincoln Laboratory ETS, New Mexico.  Observers M. Blythe, F. Shelly,
    M. Bezpalko, R. Huber, L. Manguso, D. Torres, R. Kracke, M. McCleary,
    H. Stange, A. Milner.  Measurers J. Stuart, R. Sayer, J. Evans, J. Kommers.
    1.0-m f/2.15 reflector + CCD.

Orbital elements:
2004 BX58
Epoch 2004 Jan. 16.0 TT = JDT 2453020.5                 MPC
M   4.50802              (2000.0)            P               Q
n   0.26944979     Peri.  344.75669     -0.37676134     -0.90886725
a   2.3740188      Node   127.04658     +0.87159504     -0.41323089
e   0.5560699      Incl.   12.95381     +0.31364466     +0.05657341
P   3.66           H   19.0           G   0.15
From 14 observations 2004 Jan. 23-25.

Ephemeris:
2004 BX58                a,e,i = 2.37, 0.56, 13                  q = 1.0539
Date    TT    R. A. (2000) Decl.     Delta      r     Elong.  Phase     V
2004 01 26    13 32.61   +02 22.6    0.312    1.105   104.5    59.6    18.8
2004 02 05    13 56.14   +07 30.5    0.338    1.147   110.2    53.8    18.9
2004 02 15    14 10.27   +12 14.5    0.366    1.199   117.0    47.2    19.0
2004 02 25    14 15.62   +16 30.7    0.396    1.258   124.7    40.3    19.1
2004 03 06    14 13.18   +20 07.0    0.432    1.324   132.7    33.5    19.2
2004 03 16    14 04.58   +22 48.3    0.476    1.393   139.9    27.4    19.3
2004 03 26    13 52.15   +24 22.1    0.530    1.465   145.3    22.8    19.5
2004 04 05    13 38.82   +24 44.0    0.598    1.538   147.5    20.4    19.8
2004 04 15    13 27.05   +24 03.3    0.680    1.613   146.1    20.3    20.2
2004 04 25    13 18.34   +22 35.0    0.777    1.688   141.9    21.6    20.6
2004 05 05    13 13.27   +20 35.2    0.889    1.762   136.3    23.3    21.1
2004 05 15    13 11.68   +18 17.9    1.015    1.836   129.9    25.0    21.5
2004 05 25    13 13.12   +15 52.3    1.153    1.908   123.4    26.3    21.9

Kyle E. Smalley              (C) Copyright 2004 MPC           M.P.E.C. 2004-B48

Read MPEC 2004-B47 Read MPEC 2004-B49


Our Web policy. Index to the CBAT/MPC/ICQ pages.


Valid HTML 4.01!